Location: Unspecified
(0.0000°N, 0.0000°E)
Time: 13:33:12
(UTC+00:00)

deb Blok Kosmos - Pass Details

Date: 18 November 2025
Orbit: 1344 x 1638 km, 56.1° (Epoch: 13 December)

Event Time Altitude Azimuth Distance (km) Brightness Sun altitude
Rises 19:59:59 0° 179° (S) 4,857 ? -31.5°
Reaches altitude 10° 20:04:51 10° 159° (SSE) 3,874 ? -32.6°
Enters shadow 20:08:11 15° 139° (SE) 3,468 ? -33.4°
